This is the latest recevied weather packets stored in our database for station/object KC8P. If no packets are shown the sender has not sent any weather packets the latest 10 day(s).
| Time | Temp. | Humidity | Pressure | Rain* | Wind** | Luminosity | Snow |
|---|---|---|---|---|---|---|---|
| 1778252282 | 13.33° C | 47% | 1011.4 hPa | 0 mm | - | 778 W/m² | - |
| 1778252269 | 13.33° C | 47% | 1011.4 hPa | 0 mm | - | 780 W/m² | - |
| 1778252120 | 13.33° C | 49% | 1011.8 hPa | 0 mm | - | 772 W/m² | - |
| 1778252111 | 12.78° C | 48% | 1011.8 hPa | 0 mm | - | 771 W/m² | - |
| 1778251970 | 12.78° C | 47% | 1011.8 hPa | 0 mm | - | 756 W/m² | - |
| 1778251951 | 12.78° C | 47% | 1011.8 hPa | 0 mm | - | 701 W/m² | - |
| 1778251807 | 13.33° C | 47% | 1011.8 hPa | 0 mm | - | 653 W/m² | - |
| 1778251799 | 12.78° C | 47% | 1011.8 hPa | 0 mm | - | 669 W/m² | - |
| 1778251634 | 12.78° C | 47% | 1011.8 hPa | 0 mm | - | 704 W/m² | - |
| 1778251567 | 12.78° C | 47% | 1011.8 hPa | 0 mm | - | 724 W/m² | - |
| 1778251502 | 12.78° C | 45% | 1011.8 hPa | 0 mm | - | 729 W/m² | - |
| 1778251437 | 12.78° C | 44% | 1011.8 hPa | 0 mm | - | 732 W/m² | - |
| 1778251370 | 12.78° C | 44% | 1011.8 hPa | 0 mm | - | 722 W/m² | - |
| 1778251239 | 12.78° C | 49% | 1011.8 hPa | 0 mm | - | 728 W/m² | - |
| 1778251173 | 12.78° C | 49% | 1011.8 hPa | 0 mm | - | 745 W/m² | - |
| 1778251043 | 13.33° C | 45% | 1011.8 hPa | 0 mm | - | 735 W/m² | - |
| 1778250976 | 13.33° C | 48% | 1011.8 hPa | 0 mm | - | 726 W/m² | - |
| 1778250910 | 13.33° C | 46% | 1011.8 hPa | 0 mm | - | 725 W/m² | - |
| 1778250844 | 13.33° C | 47% | 1011.8 hPa | 0 mm | - | 721 W/m² | - |
| 1778250778 | 12.78° C | 50% | 1011.8 hPa | 0 mm | - | 705 W/m² | - |
| 1778250712 | 12.78° C | 52% | 1011.8 hPa | 0 mm | - | 699 W/m² | - |
| 1778250648 | 12.22° C | 50% | 1012.1 hPa | 0 mm | - | 701 W/m² | - |
| 1778250581 | 12.22° C | 49% | 1011.8 hPa | 0 mm | - | 710 W/m² | - |
| 1778250517 | 12.22° C | 50% | 1011.8 hPa | 0 mm | - | 707 W/m² | - |
| 1778250451 | 12.22° C | 51% | 1011.8 hPa | 0 mm | - | 701 W/m² | - |
* Rain latest hour (hover to see other rain measurements)
** Current wind speed in m/s (hover to see current wind gust speed)